| time (UTC) | temp C | wind direction | speed KPH | gust KPH | rain 1hr cm | rain 24hr cm | rain mn cm | humidity % | barometer mb |
| 20260505083036 | 12 | 108 | 0.0 | 14.5 | 0.00 | 0.46 | 0.00 | 51 | 1007.8 |
| 20260505081504 | 12 | 152 | 1.6 | 12.9 | 0.00 | 0.46 | 0.00 | 50 | 1007.7 |
| 20260505080005 | 12 | 99 | 0.0 | 9.7 | 0.00 | 0.46 | 0.00 | 50 | 1007.5 |
| 20260505074510 | 12 | 115 | 1.6 | 11.3 | 0.00 | 0.46 | 0.00 | 50 | 1007.6 |
| 20260505073015 | 12 | 295 | 1.6 | 19.3 | 0.00 | 0.46 | 0.00 | 50 | 1007.8 |
| 20260505071503 | 13 | 6 | 0.0 | 12.9 | 0.00 | 0.46 | 0.00 | 50 | 1007.8 |
| 20260505070004 | 13 | 136 | 1.6 | 11.3 | 0.00 | 0.46 | 0.00 | 49 | 1007.6 |
| 20260505064504 | 13 | 60 | 1.6 | 12.9 | 0.00 | 0.46 | 0.00 | 47 | 1007.1 |
| 20260505063009 | 13 | 139 | 1.6 | 14.5 | 0.00 | 0.46 | 0.00 | 47 | 1006.9 |
| 20260505061517 | 14 | 172 | 3.2 | 14.5 | 0.00 | 0.46 | 0.00 | 46 | 1006.7 |
| 20260505060004 | 15 | 18 | 0.0 | 12.9 | 0.00 | 0.46 | 0.00 | 46 | 1006.2 |
| 20260505054504 | 15 | 265 | 1.6 | 16.1 | 0.00 | 0.46 | 0.00 | 45 | 1005.6 |
| 20260505053007 | 16 | 275 | 1.6 | 8.0 | 0.00 | 0.46 | 0.00 | 45 | 1005.4 |
| 20260505051518 | 16 | 14 | 1.6 | 14.5 | 0.00 | 0.46 | 0.00 | 44 | 1005.1 |
| 20260505041510 | 16 | 293 | 0.0 | 3.2 | 0.05 | 0.46 | 0.46 | 54 | 1005.0 |
| 20260505040012 | 16 | 259 | 0.0 | 3.2 | 0.46 | 0.46 | 0.46 | 61 | 1005.5 |
| 20260505034517 | 15 | 112 | 0.0 | 3.2 | 0.46 | 0.46 | 0.46 | 66 | 1005.4 |
| 20260505033024 | 15 | 278 | 0.0 | 6.4 | 0.43 | 0.43 | 0.43 | 73 | 1005.3 |
| 20260505031521 | 16 | 274 | 0.0 | 11.3 | 0.41 | 0.41 | 0.41 | 69 | 1005.2 |
| 20260505030010 | 22 | 11 | 0.0 | 12.9 | 0.00 | 0.00 | 0.00 | 44 | 1004.3 |
| 20260505024515 | 22 | 311 | 0.0 | 1.6 | 0.00 | 0.00 | 0.00 | 50 | 1003.3 |
| 20260505023022 | 22 | 122 | 0.0 | 0.0 | 0.00 | 0.00 | 0.00 | 50 | 1002.1 |
| 20260505021525 | 22 | 84 | 0.0 | 0.0 | 0.00 | 0.00 | 0.00 | 50 | 1001.5 |
| 20260505020008 | 23 | 147 | 0.0 | 0.0 | 0.00 | 0.00 | 0.00 | 48 | 1001.6 |
| 20260505014516 | 23 | 147 | 0.0 | 0.0 | 0.00 | 0.00 | 0.00 | 46 | 1001.5 |
| 20260505013017 | 24 | 132 | 0.0 | 0.0 | 0.00 | 0.00 | 0.00 | 42 | 1001.5 |
| 20260505011522 | 25 | 82 | 0.0 | 0.0 | 0.00 | 0.00 | 0.00 | 39 | 1001.1 |
| 20260505010025 | 25 | 76 | 0.0 | 0.0 | 0.00 | 0.00 | 0.00 | 37 | 1001.0 |
| 20260505004509 | 26 | 80 | 0.0 | 0.0 | 0.00 | 0.00 | 0.00 | 36 | 1001.0 |
| 20260505003012 | 26 | 88 | 0.0 | 0.0 | 0.00 | 0.00 | 0.00 | 33 | 1001.1 |
| 20260505001518 | 27 | 57 | 0.0 | 0.0 | 0.00 | 0.00 | 0.00 | 33 | 1001.1 |
| 20260505000021 | 28 | 50 | 0.0 | 1.6 | 0.00 | 0.00 | 0.00 | 30 | 1001.1 |
| 20260504234528 | 29 | 23 | 0.0 | 3.2 | 0.00 | 0.00 | 0.00 | 28 | 1001.2 |
| 20260504233008 | 29 | 89 | 0.0 | 1.6 | 0.00 | 0.00 | 0.00 | 26 | 1001.2 |
| 20260504231513 | 30 | 47 | 0.0 | 1.6 | 0.00 | 0.00 | 0.00 | 25 | 1001.3 |
| 20260504230020 | 30 | 63 | 0.0 | 0.0 | 0.00 | 0.00 | 0.00 | 25 | 1001.3 |
| 20260504224528 | 29 | 101 | 0.0 | 0.0 | 0.00 | 0.00 | 0.00 | 26 | 1001.4 |
| 20260504223025 | 29 | 82 | 0.0 | 0.0 | 0.00 | 0.00 | 0.00 | 26 | 1001.3 |
| 20260504221512 | 29 | 121 | 0.0 | 1.6 | 0.00 | 0.00 | 0.00 | 27 | 1001.2 |
| 20260504220016 | 30 | 55 | 0.0 | 3.2 | 0.00 | 0.00 | 0.00 | 27 | 1001.3 |
| 20260504214503 | 31 | 101 | 0.0 | 1.6 | 0.00 | 0.00 | 0.00 | 26 | 1001.3 |
| 20260504213003 | 30 | 87 | 0.0 | 4.8 | 0.00 | 0.00 | 0.00 | 28 | 1001.6 |
| 20260504211507 | 30 | 79 | 0.0 | 1.6 | 0.00 | 0.00 | 0.00 | 29 | 1001.7 |
| 20260504210015 | 30 | 224 | 0.0 | 1.6 | 0.00 | 0.00 | 0.00 | 27 | 1001.8 |
| 20260504204502 | 30 | 80 | 0.0 | 1.6 | 0.00 | 0.00 | 0.00 | 29 | 1002.2 |
| 20260504203004 | 29 | 131 | 0.0 | 1.6 | 0.00 | 0.00 | 0.00 | 32 | 1002.5 |
| 20260504201508 | 29 | 103 | 0.0 | 1.6 | 0.00 | 0.00 | 0.00 | 34 | 1002.6 |
| 20260504200014 | 29 | 129 | 0.0 | 1.6 | 0.00 | 0.00 | 0.00 | 30 | 1002.8 |
| 20260504194514 | 29 | 114 | 0.0 | 1.6 | 0.00 | 0.00 | 0.00 | 31 | 1002.8 |
| 20260504193018 | 28 | 115 | 0.0 | 1.6 | 0.00 | 0.00 | 0.00 | 33 | 1002.9 |
| 20260504191506 | 28 | 83 | 0.0 | 1.6 | 0.00 | 0.00 | 0.00 | 31 | 1003.0 |
| 20260504190011 | 28 | 134 | 0.0 | 1.6 | 0.00 | 0.00 | 0.00 | 29 | 1003.2 |
| 20260504184515 | 29 | 307 | 0.0 | 1.6 | 0.00 | 0.00 | 0.00 | 28 | 1003.1 |
| 20260504183023 | 28 | 108 | 0.0 | 1.6 | 0.00 | 0.00 | 0.00 | 31 | 1003.3 |
| 20260504181519 | 29 | 271 | 0.0 | 1.6 | 0.00 | 0.00 | 0.00 | 33 | 1003.3 |
| 20260504180006 | 28 | 311 | 0.0 | 1.6 | 0.00 | 0.00 | 0.00 | 34 | 1003.4 |
| 20260504174508 | 28 | 115 | 0.0 | 1.6 | 0.00 | 0.00 | 0.00 | 32 | 1003.5 |
| 20260504173012 | 28 | 295 | 0.0 | 1.6 | 0.00 | 0.00 | 0.00 | 33 | 1003.5 |
| 20260504171521 | 27 | 56 | 0.0 | 1.6 | 0.00 | 0.00 | 0.00 | 36 | 1003.6 |